Timeline UpdatesTrip UpdatesNews PostsPvt PostsTravel TipsAdmin PostsConv PostsFollowed PostsChat RequestsBlog PostsPNR Posts

Disclaimer
Search
 
 
Sun Aug 31, 2014 07:46:29 ISTHomeTrainsΣChainsAtlasPNRForumGalleryNewsFAQTripsMembersLoginFeedback
No Recent News for this Train
Other Trains in the News **new
Latest...
.
Fri Mar 14, 2014 (07:42PM)
⇐ Return Journey: Train# 16210

16209/Ajmer-Mysore Express

Aug 19 (11:38AM)
Change Departure Station:
Change Arrival Station:
Post a Train Travel TipPost a Train Travel Tip **new
Post a Comment/Question/Picture/VideoPost a Comment/Question/Picture/Video
Pantry/Catering
✓ Pantry Car Avbl
✓ Catering Avbl
RSA - Rake Sharing
16217/16218 Mysore-Shirdi Express
Rake/Coach Composition
LOCO-SLR-GEN-S13-S12-S11-S10-S9-S8-S7-S6-S5-S4-PC-S3-S2-S1-B2-B1-A2-A1-GEN-GEN-SLR; Total 23 coaches
Loco
Ubl wdp4/4b
News    PNR    Forum    Time-Table    Availability    Fare Chart    Map    Arr/Dep History    Trips    Gallery    ΣChains    X/O    Timeline    
Travel Time: 3h 50m    2 halts    Distance: 160 km    Avg Speed: 41 km/hr
Type: Mail/Express
Zone: SWR/South Western
Departs @ 23:05 (Avg 32m late)
Platform# ???
 M    S
Arsikere Junction/ASK 
Arrives @ 02:55 +1 night (Avg 4m late)
Platform# ???
S T    
Yesvantpur Junction/YPR 

2 halts. 25 intermediate Stations between Arsikere Junction and Yesvantpur Junction

Show ALL intermediate Stations  Show Old Time-Table

#CodeStation NameX/OArrivesAvgDepartsAvgHaltPFDay#KmSpeedElevZoneAddress
1AIIAjmer Junction (5)  -05:35+011-1988.275464mNWRPin: 305001, Rajasthan
2BERBeawar (2)  06:17+1206:19+122m--1-1936.068447mNWRBeawar, Rajasthan
3SODSojat Road (2)  07:18+1707:20+172m11-1869.555295mNWRSojat Road, Rajasthan
4MJMarwar Junction (4)X  07:43+1607:45+182m61-1848.681267mNWRMarwar Junction, Rajasthan
5FAFalna (2)  08:34+2308:36+242m--1-1782.167282mNWRFalna, Rajasthan
6SOHSirohi Road (2)  09:25+2309:27+252m--1-1727.168369mNWRPindwara, Rajasthan
7ABRAbu Road (3)X  10:06+2810:25+2019m21-1683.238264mNWRSirohi Dist, Rajasthan
8PNUPalanpur Junction (5)X  11:48+611:50+162m11-1630.652216mWRPalanpur, Gujarat
9MSHMahesana Junction (6)X  13:05+1713:07+212m21-1565.65395mWRMehsana, Gujarat
10ADIAhmedabad Junction (12)  14:30+614:50+620m41-1492.65451mWRAhmedabad, Gujarat
11NDNadiad Junction (4)  15:41+2815:43+282m--1-1447.16237mWRNadiad, Gujarat
12ANNDAnand Junction (6)X  16:01+3216:03+322m--1-1428.65544mWRAnand, Gujarat
13BRCVadodara Junction (7)X  16:42+3416:52+3510m11-1392.89036mWRVadodara 390005, Gujarat
14BHBharuch Junction (5)X  17:39+2217:41+222m41-1322.34219mWRBharuch, Gujarat
15STSurat (4)X  19:05+2619:15+2610m21-1263.06119mWRSurat 395001, Gujarat
16BLValsad (3)X  20:23+2520:25+292m--1-1194.36615mWRValsad, Gujarat
17VAPIVapi (3)  20:49+2920:51+282m--1-1168.14427mWRVapi, Gujarat
18BSRVasai Road (7)X  23:35-123:40+45m51-1047.0537mWRVasai 401202, Maharashtra
19BIRDBhiwandi Road (4)  00:11+1000:13+102m--2-1019.72126mCRBhiwandi, Maharashtra
20KYNKalyan Junction (8)  01:05+001:10+75m62-1001.74810mCRKalyan 421301, Maharashtra
21KJTKarjat Junction (4)X  02:08+902:10+132m12-954.93657mCRKarjat, Maharashtra
22LNLLonavala (3)X  02:58+603:00+82m12-926.255623mCRLonavala 410401, Maharashtra
23PUNEPune Junction (6)X  04:10+104:20+810m22-862.651556mCRPune 411001, Maharashtra
24STRSatara (3)  07:10+1907:13+203m12-716.964637mCRSatara, Maharashtra
25KRDKarad (3)  08:08+2108:10+242m12-658.253597mCRDist- Satara., Maharashtra
26SLISangli (3)X  09:27+809:30+183m32-590.37559mCRSangli, Maharashtra
27MRJMiraj Junction (6)  10:30+010:35+05m12-583.048554mCRMiraj 416410, Maharashtra
28BGMBelgaum (3)  13:25+2113:30+215m22-445.668752mSWRBelgaum 590001, Karnataka
29LDLonda Junction (3)  14:15+3314:17+362m12-394.334643mSWRLonda, Karnataka
30DWRDharwad (4)X  16:20+716:25+85m22-323.818737mSWRDharwad 580001, Karnataka
31UBLHubli Junction (5)  17:30-117:40+210m12-303.864640mSWRHubli - 580020, Karnataka
32HVRHaveri (3)  18:50+1818:52+192m--2-228.757558mSWRHaveri, Karnataka
33RNRRanibennur (3)X  19:26+3219:28+372m--2-196.138583mSWRRanebennur, Karnataka
34HRRHarihar (3)  20:05+2720:10+325m--2-172.855553mSWRHarihar, Karnataka
35DVGDavangere (2)  20:24+3520:27+353m--2-160.068598mSWRDavanagere, Karnataka
36RRBBirur Junction (3)  22:08+3522:10+342m--2-45.054802mSWRBirur, Karnataka
37ASK»Arsikere Junction (3)»X  23:00+2823:05+325m--20.055816mSWRArsikere, Karnataka
38TTRTiptur (4)X  23:33+3323:35+332m1225.538860mSWRTiptur, Karnataka
39TKTumkur (3)  01:28+1501:30+152m1396.545823mSWRTumkur, Karnataka
40YPR•Yesvantpur Junction (6)•  02:55+403:00+45m--3160.521919mSWRBengaluru 560022, Karnataka
41MWMMalleswaram (2)  03:08+003:10+02m--3163.334916mSWRBengaluru, Karnataka
42SBCBangalore City Junction (10)  03:15+303:45+430m83166.178903mSWRBengaluru-560023, Karnataka
43RMGMRamanagaram (4)04:19-04:20-1m--3210.561692mSWRRamanagaram, Karnataka
44MYAMandya (3)  05:08+1405:10+132m--3259.180672mSWRMandya, Karnataka
45MYSMysore Junction (6)  06:20+7-43303.3-760mSWRTel No 0821-2521751.URL: www.mysorerailwaystation.in, Karnataka
Scroll to Top
Scroll to Bottom